ITY94 LKTB-LIMC

Flight info

Callsign ITY94
Flight time 1h 6m
Altitude 34000
Route MIKOV DCT GAMLI DCT DETSA DCT NAXAV DCT RENTA DCT ATPED DCT LUSIL DCT EVRIP
Aircraft A21N/M-SDE2E3FGHIRWXY/LB1

Departure

Time 2026-04-26 22:48
Airport Brno-Tuřany Airport (LKTB)

Arrival

Time 2026-04-26 23:54
Airport Milan Malpensa International Airport (LIMC)
Time Latitude Longitude Altitude Speed Heading
2026-04-26 22:29 49.15444 16.68216 792 ft 0 kts
2026-04-26 22:30 49.15373 16.69251 792 ft 0 kts 191°
2026-04-26 22:41 49.15367 16.69250 792 ft 2 kts 185°
2026-04-26 22:42 49.15349 16.69260 792 ft 3 kts 150°
2026-04-26 22:42 49.15341 16.69287 792 ft 4 kts 109°
2026-04-26 22:42 49.15327 16.69365 792 ft 10 kts 101°
2026-04-26 22:42 49.15314 16.69504 792 ft 16 kts 97°
2026-04-26 22:43 49.15299 16.69672 790 ft 16 kts 98°
2026-04-26 22:43 49.15286 16.69814 790 ft 11 kts 98°
2026-04-26 22:43 49.15277 16.69925 790 ft 11 kts 96°
2026-04-26 22:43 49.15267 16.70044 790 ft 12 kts 98°
2026-04-26 22:44 49.15255 16.70185 790 ft 14 kts 97°
2026-04-26 22:44 49.15242 16.70345 790 ft 16 kts 97°
2026-04-26 22:44 49.15228 16.70510 790 ft 16 kts 97°
2026-04-26 22:44 49.15213 16.70678 790 ft 16 kts 98°
2026-04-26 22:45 49.15199 16.70847 793 ft 16 kts 97°
2026-04-26 22:45 49.15190 16.70961 793 ft 16 kts 97°
2026-04-26 22:45 49.15176 16.71137 793 ft 17 kts 97°
2026-04-26 22:45 49.15153 16.71200 793 ft 1 kts 162°
2026-04-26 22:46 49.15129 16.71203 792 ft 5 kts 186°
2026-04-26 22:46 49.15080 16.71195 790 ft 9 kts 186°
2026-04-26 22:46 49.15000 16.71165 788 ft 12 kts 219°
2026-04-26 22:46 49.14988 16.71074 787 ft 7 kts 278°
2026-04-26 22:47 49.14989 16.71064 787 ft 1 kts 278°
2026-04-26 22:47 49.15002 16.70917 787 ft 1 kts 277°
2026-04-26 22:47 49.15027 16.70628 785 ft 61 kts 277°
2026-04-26 22:47 49.15113 16.69643 788 ft 127 kts 277°
2026-04-26 22:48 49.15261 16.68032 985 ft 165 kts 278°
2026-04-26 22:48 49.15406 16.66297 1712 ft 162 kts 278°
2026-04-26 22:48 49.15551 16.64578 2417 ft 166 kts 278°
2026-04-26 22:48 49.15580 16.62661 2778 ft 198 kts 259°
2026-04-26 22:49 49.14817 16.60794 3034 ft 223 kts 214°
2026-04-26 22:49 49.13280 16.60081 3342 ft 248 kts 174°
2026-04-26 22:49 49.11662 16.61062 4049 ft 257 kts 141°
2026-04-26 22:49 49.10328 16.62868 4947 ft 263 kts 136°
2026-04-26 22:50 49.08956 16.64775 5798 ft 271 kts 139°
2026-04-26 22:50 49.07492 16.66658 6660 ft 279 kts 142°
2026-04-26 22:50 49.05837 16.68235 7487 ft 283 kts 162°
2026-04-26 22:50 49.03898 16.68630 8315 ft 283 kts 187°
2026-04-26 22:51 49.01930 16.68254 9212 ft 287 kts 193°
2026-04-26 22:51 48.99941 16.67722 10110 ft 293 kts 194°
2026-04-26 22:51 48.97898 16.67158 10742 ft 307 kts 194°
2026-04-26 22:51 48.95711 16.66561 11071 ft 332 kts 194°
2026-04-26 22:52 48.93359 16.65934 11395 ft 354 kts 193°
2026-04-26 22:52 48.90857 16.65279 11798 ft 373 kts 193°
2026-04-26 22:52 48.88267 16.64610 12457 ft 382 kts 193°
2026-04-26 22:52 48.85658 16.63940 13237 ft 387 kts 193°
2026-04-26 22:53 48.83004 16.63136 14023 ft 391 kts 198°
2026-04-26 22:53 48.80447 16.61746 14719 ft 391 kts 209°
2026-04-26 22:53 48.78123 16.59625 15426 ft 390 kts 220°
2026-04-26 22:53 48.76134 16.56846 16120 ft 388 kts 232°
2026-04-26 22:54 48.74425 16.53666 16845 ft 390 kts 236°
2026-04-26 22:54 48.72824 16.50325 17545 ft 393 kts 238°
2026-04-26 22:54 48.71267 16.46890 18222 ft 396 kts 239°
2026-04-26 22:54 48.69718 16.43416 18852 ft 400 kts 239°
2026-04-26 22:55 48.68152 16.39918 19470 ft 402 kts 238°
2026-04-26 22:55 48.66564 16.36418 20108 ft 403 kts 238°
2026-04-26 22:55 48.64961 16.32924 20731 ft 405 kts 238°
2026-04-26 22:55 48.63338 16.29422 21335 ft 407 kts 237°
2026-04-26 22:56 48.61726 16.25962 21931 ft 409 kts 237°
2026-04-26 22:56 48.60076 16.22431 22427 ft 414 kts 237°
2026-04-26 22:56 48.58404 16.18861 22944 ft 417 kts 237°
2026-04-26 22:56 48.56719 16.15269 23493 ft 420 kts 237°
2026-04-26 22:57 48.55018 16.11645 24015 ft 423 kts 237°
2026-04-26 22:57 48.53313 16.08016 24469 ft 425 kts 237°
2026-04-26 22:57 48.51597 16.04370 24920 ft 427 kts 237°
2026-04-26 22:57 48.49876 16.00717 25377 ft 428 kts 237°
2026-04-26 22:58 48.48149 15.97055 25830 ft 430 kts 237°
2026-04-26 22:58 48.46413 15.93379 26256 ft 431 kts 237°
2026-04-26 22:58 48.44691 15.89736 26671 ft 433 kts 237°
2026-04-26 22:58 48.42934 15.86026 27063 ft 434 kts 237°
2026-04-26 22:59 48.41180 15.82326 27508 ft 434 kts 237°
2026-04-26 22:59 48.39427 15.78635 28047 ft 432 kts 237°
2026-04-26 22:59 48.37684 15.74972 28602 ft 429 kts 237°
2026-04-26 22:59 48.35947 15.71324 29133 ft 427 kts 237°
2026-04-26 23:00 48.34220 15.67704 29639 ft 425 kts 237°
2026-04-26 23:00 48.32499 15.64100 30160 ft 423 kts 237°
2026-04-26 23:00 48.30792 15.60530 30722 ft 418 kts 237°
2026-04-26 23:00 48.29097 15.56988 31065 ft 418 kts 237°
2026-04-26 23:01 48.27396 15.53436 31313 ft 419 kts 237°
2026-04-26 23:01 48.25689 15.49875 31590 ft 420 kts 237°
2026-04-26 23:01 48.24002 15.46361 31847 ft 421 kts 237°
2026-04-26 23:01 48.22285 15.42791 32134 ft 422 kts 237°
2026-04-26 23:02 48.20569 15.39228 32465 ft 421 kts 237°
2026-04-26 23:02 48.18855 15.35677 32780 ft 421 kts 237°
2026-04-26 23:02 48.17138 15.32121 33082 ft 420 kts 237°
2026-04-26 23:02 48.15421 15.28571 33379 ft 420 kts 237°
2026-04-26 23:03 48.13705 15.25027 33669 ft 420 kts 237°
2026-04-26 23:03 48.11986 15.21483 33956 ft 420 kts 237°
2026-04-26 23:03 48.10269 15.17947 34217 ft 421 kts 237°
2026-04-26 23:04 48.06818 15.10852 34256 ft 421 kts 237°
2026-04-26 23:04 48.03393 15.03831 34261 ft 420 kts 237°
2026-04-26 23:05 47.99935 14.96754 34261 ft 423 kts 237°
2026-04-26 23:05 47.96457 14.89660 34257 ft 424 kts 237°
2026-04-26 23:06 47.92968 14.82563 34256 ft 424 kts 237°
2026-04-26 23:06 47.89543 14.75403 34252 ft 423 kts 239°
2026-04-26 23:07 47.86385 14.68009 34238 ft 422 kts 241°
2026-04-26 23:07 47.83303 14.60607 34241 ft 423 kts 241°
2026-04-26 23:08 47.80181 14.53186 34239 ft 423 kts 240°
2026-04-26 23:08 47.77033 14.45782 34220 ft 423 kts 240°
2026-04-26 23:09 47.73868 14.38383 34215 ft 426 kts 240°
2026-04-26 23:09 47.70682 14.30959 34225 ft 426 kts 240°
2026-04-26 23:10 47.67489 14.23538 34214 ft 426 kts 240°
2026-04-26 23:10 47.64293 14.16127 34214 ft 426 kts 240°
2026-04-26 23:11 47.61092 14.08731 34212 ft 426 kts 240°
2026-04-26 23:11 47.57908 14.01384 34204 ft 426 kts 240°
2026-04-26 23:12 47.54702 13.94012 34206 ft 425 kts 240°
2026-04-26 23:12 47.51486 13.86633 34199 ft 428 kts 240°
2026-04-26 23:13 47.48244 13.79214 34201 ft 430 kts 239°
2026-04-26 23:13 47.44985 13.71781 34198 ft 430 kts 239°
2026-04-26 23:14 47.41726 13.64368 34197 ft 430 kts 239°
2026-04-26 23:14 47.38484 13.57011 34193 ft 429 kts 239°
2026-04-26 23:15 47.35218 13.49618 34197 ft 429 kts 239°
2026-04-26 23:15 47.31954 13.42252 34183 ft 429 kts 239°
2026-04-26 23:16 47.28680 13.34884 34194 ft 429 kts 239°
2026-04-26 23:16 47.25391 13.27497 34187 ft 432 kts 239°
2026-04-26 23:17 47.22109 13.20147 34186 ft 432 kts 239°
2026-04-26 23:17 47.18797 13.12759 34183 ft 433 kts 239°
2026-04-26 23:18 47.17138 13.09065 34176 ft 432 kts 239°
2026-04-26 23:18 47.13893 13.01845 34174 ft 433 kts 239°
2026-04-26 23:19 47.10567 12.94468 34171 ft 432 kts 239°
2026-04-26 23:19 47.07255 12.87140 34151 ft 432 kts 239°
2026-04-26 23:20 47.03927 12.79799 34170 ft 432 kts 239°
2026-04-26 23:20 47.00589 12.72455 34169 ft 433 kts 239°
2026-04-26 23:21 46.97249 12.65121 34164 ft 433 kts 239°
2026-04-26 23:21 46.93899 12.57784 34187 ft 434 kts 239°
2026-04-26 23:22 46.90545 12.50461 34182 ft 433 kts 239°
2026-04-26 23:22 46.87207 12.43192 34222 ft 432 kts 239°
2026-04-26 23:23 46.83853 12.35917 34246 ft 432 kts 239°
2026-04-26 23:23 46.80547 12.28592 34258 ft 430 kts 243°
2026-04-26 23:24 46.77711 12.20861 34265 ft 432 kts 245°
2026-04-26 23:24 46.76356 12.17007 34163 ft 433 kts 246°
2026-04-26 23:24 46.74989 12.13074 34160 ft 433 kts 246°
2026-04-26 23:25 46.72276 12.05256 34169 ft 431 kts 246°
2026-04-26 23:25 46.69559 11.97473 34158 ft 430 kts 246°
2026-04-26 23:26 46.66831 11.89700 34164 ft 431 kts 245°
2026-04-26 23:26 46.64098 11.81943 34163 ft 431 kts 246°
2026-04-26 23:27 46.61356 11.74182 34182 ft 431 kts 245°
2026-04-26 23:27 46.58627 11.66483 34173 ft 431 kts 245°
2026-04-26 23:28 46.55878 11.58747 34183 ft 430 kts 245°
2026-04-26 23:28 46.53124 11.51023 34187 ft 430 kts 245°
2026-04-26 23:29 46.50359 11.43292 34186 ft 431 kts 245°
2026-04-26 23:29 46.47606 11.35611 34183 ft 431 kts 245°
2026-04-26 23:30 46.44869 11.27868 34194 ft 432 kts 246°
2026-04-26 23:30 46.42191 11.20058 34197 ft 433 kts 246°
2026-04-26 23:31 46.39522 11.12260 34293 ft 431 kts 246°
2026-04-26 23:31 46.37295 11.05785 34291 ft 431 kts 246°
2026-04-26 23:32 46.34173 10.96741 34291 ft 431 kts 246°
2026-04-26 23:32 46.31932 10.90286 34276 ft 431 kts 246°
2026-04-26 23:33 46.29287 10.82668 34250 ft 433 kts 246°
2026-04-26 23:33 46.26577 10.74871 34236 ft 434 kts 246°
2026-04-26 23:34 46.23897 10.67199 34223 ft 435 kts 246°
2026-04-26 23:34 46.21169 10.59406 34196 ft 435 kts 246°
2026-04-26 23:35 46.18467 10.51716 34009 ft 419 kts 246°
2026-04-26 23:35 46.17145 10.47960 33090 ft 423 kts 246°
2026-04-26 23:35 46.15827 10.44205 32247 ft 427 kts 246°
2026-04-26 23:35 46.14617 10.40762 31588 ft 427 kts 246°
2026-04-26 23:36 46.13268 10.36934 30813 ft 429 kts 246°
2026-04-26 23:36 46.11907 10.33079 29977 ft 432 kts 246°
2026-04-26 23:36 46.10538 10.29206 29047 ft 434 kts 246°
2026-04-26 23:36 46.09168 10.25336 28170 ft 434 kts 246°
2026-04-26 23:37 46.07789 10.21455 27269 ft 435 kts 246°
2026-04-26 23:37 46.06409 10.17574 26343 ft 437 kts 246°
2026-04-26 23:37 46.05020 10.13671 25505 ft 437 kts 246°
2026-04-26 23:37 46.03657 10.09787 24854 ft 432 kts 246°
2026-04-26 23:38 46.02335 10.05914 24165 ft 429 kts 247°
2026-04-26 23:38 46.01040 10.02057 23406 ft 427 kts 247°
2026-04-26 23:38 45.99761 9.98225 22655 ft 422 kts 247°
2026-04-26 23:38 45.98517 9.94494 22010 ft 417 kts 247°
2026-04-26 23:39 45.97248 9.90704 21280 ft 413 kts 246°
2026-04-26 23:39 45.96022 9.87062 20597 ft 410 kts 246°
2026-04-26 23:39 45.94779 9.83386 19896 ft 407 kts 246°
2026-04-26 23:39 45.93545 9.79738 19186 ft 405 kts 245°
2026-04-26 23:40 45.92315 9.76111 18484 ft 403 kts 245°
2026-04-26 23:40 45.91088 9.72500 17726 ft 400 kts 245°
2026-04-26 23:40 45.89872 9.68928 17008 ft 397 kts 245°
2026-04-26 23:40 45.88662 9.65382 16314 ft 393 kts 245°
2026-04-26 23:41 45.87465 9.61874 15624 ft 390 kts 245°
2026-04-26 23:41 45.86272 9.58385 14934 ft 388 kts 244°
2026-04-26 23:41 45.84869 9.55089 14264 ft 387 kts 236°
2026-04-26 23:41 45.83270 9.52000 13543 ft 385 kts 233°
2026-04-26 23:42 45.81653 9.49023 12854 ft 381 kts 232°
2026-04-26 23:42 45.78384 9.43113 11518 ft 374 kts 232°
2026-04-26 23:42 45.76766 9.40212 10857 ft 371 kts 232°
2026-04-26 23:43 45.75189 9.37389 10705 ft 352 kts 232°
2026-04-26 23:43 45.73704 9.34735 10637 ft 331 kts 231°
2026-04-26 23:43 45.72300 9.32227 10548 ft 313 kts 231°
2026-04-26 23:43 45.70969 9.29853 10398 ft 299 kts 231°
2026-04-26 23:44 45.69694 9.27580 10258 ft 286 kts 231°
2026-04-26 23:44 45.68471 9.25401 10143 ft 276 kts 231°
2026-04-26 23:44 45.67283 9.23287 9877 ft 272 kts 231°
2026-04-26 23:44 45.66100 9.21184 9488 ft 271 kts 231°
2026-04-26 23:45 45.64924 9.19094 9150 ft 268 kts 231°
2026-04-26 23:45 45.63757 9.17022 8822 ft 266 kts 231°
2026-04-26 23:45 45.62598 9.14964 8485 ft 266 kts 231°
2026-04-26 23:45 45.61439 9.12910 8175 ft 265 kts 231°
2026-04-26 23:46 45.60285 9.10866 7855 ft 264 kts 231°
2026-04-26 23:46 45.59145 9.08847 7530 ft 263 kts 231°
2026-04-26 23:46 45.57995 9.06813 7208 ft 262 kts 231°
2026-04-26 23:46 45.56851 9.04791 6894 ft 261 kts 231°
2026-04-26 23:47 45.55710 9.02776 6571 ft 260 kts 231°
2026-04-26 23:47 45.54577 9.00774 6235 ft 258 kts 231°
2026-04-26 23:47 45.53460 8.98804 5917 ft 257 kts 231°
2026-04-26 23:47 45.52338 8.96827 5605 ft 256 kts 231°
2026-04-26 23:48 45.51215 8.94847 5290 ft 256 kts 231°
2026-04-26 23:48 45.50209 8.92694 4950 ft 265 kts 239°
2026-04-26 23:48 45.49294 8.90389 4416 ft 268 kts 241°
2026-04-26 23:48 45.48419 8.88071 4157 ft 259 kts 242°
2026-04-26 23:49 45.47599 8.85866 4029 ft 245 kts 242°
2026-04-26 23:49 45.46836 8.83800 4024 ft 225 kts 242°
2026-04-26 23:49 45.46125 8.81870 3986 ft 217 kts 242°
2026-04-26 23:49 45.45634 8.79851 3681 ft 218 kts 270°
2026-04-26 23:50 45.46129 8.77871 3552 ft 216 kts 312°
2026-04-26 23:50 45.47420 8.76871 3432 ft 213 kts 349°
2026-04-26 23:50 45.48815 8.76664 3352 ft 195 kts 356°
2026-04-26 23:50 45.50109 8.76534 3235 ft 179 kts 355°
2026-04-26 23:51 45.51318 8.76476 2992 ft 169 kts 355°
2026-04-26 23:51 45.52471 8.76257 2610 ft 167 kts 348°
2026-04-26 23:51 45.53601 8.75958 2415 ft 165 kts 349°
2026-04-26 23:51 45.54730 8.75650 2113 ft 165 kts 347°
2026-04-26 23:52 45.55856 8.75335 1884 ft 164 kts 348°
2026-04-26 23:52 45.56966 8.75030 1686 ft 157 kts 348°
2026-04-26 23:52 45.57986 8.74748 1459 ft 143 kts 348°
2026-04-26 23:52 45.58938 8.74485 1281 ft 137 kts 349°
2026-04-26 23:53 45.59873 8.74225 1097 ft 137 kts 349°
2026-04-26 23:53 45.60805 8.73968 917 ft 136 kts 349°
2026-04-26 23:53 45.61737 8.73710 739 ft 136 kts 349°
2026-04-26 23:53 45.62575 8.73477 731 ft 100 kts 348°
2026-04-26 23:54 45.63090 8.73286 736 ft 58 kts 330°
2026-04-26 23:54 45.63301 8.72982 741 ft 38 kts 303°
2026-04-26 23:54 45.63396 8.72656 747 ft 33 kts 273°
2026-04-26 23:54 45.63369 8.72344 749 ft 31 kts 258°
2026-04-26 23:55 45.63328 8.72052 748 ft 29 kts 258°
2026-04-26 23:55 45.63300 8.71814 747 ft 22 kts 259°
2026-04-26 23:55 45.63302 8.71616 749 ft 18 kts 305°
2026-04-26 23:55 45.63380 8.71550 751 ft 11 kts 343°
2026-04-26 23:56 45.63441 8.71533 750 ft 8 kts 349°
2026-04-26 23:56 45.63461 8.71528 754 ft 0 kts 349°